Weather observations for the past three days for
Carson City Airport
Imperial (Metric)
Date Time (pdt) Wind (mph) Vis. (mi.) Weather Sky Cond. Temperature (ºF) Relative Humidity Wind Chill (°F) Heat Index (°F) Pressure Precipitation (in)
Air Dwpt 6 hour altimeter (in) sea level (mb) 1 hr 3 hr 6 hr
Max. Min.
13 17:55 SW 13 G 24 10.00 Fair CLR 86 39.2 19% 83 30.18 0.0
13 17:35 S 8 10.00 Thunderstorm in Vicinity CLR 87.8 35.6 16% 84 30.16 0.0
13 17:15 SW 14 G 23 10.00 Fair CLR 87.8 37.4 17% 84 30.15 0.0
13 16:55 S 9 G 20 10.00 Fair CLR 82.4 44.6 26% 81 30.18 0.0
13 16:35 S 13 G 25 10.00 Fair CLR 82.4 46.4 28% 81 30.19 0.0
13 16:15 S 25 G 41 6.00 Fair with Haze and Breezy CLR 86 44.6 24% 83 30.18 0.0
13 15:55 W 8 G 15 10.00 Fair CLR 95 39.2 14% 91 30.14 0.0
13 15:35 NW 10 G 18 10.00 Fair CLR 96.8 33.8 11% 92 30.13 0.0
13 15:15 W 12 10.00 Fair CLR 96.8 33.8 11% 92 30.12 0.0
13 14:55 W 6 G 17 10.00 Fair CLR 98.6 33.8 10% 93 30.13 0.0
13 14:35 Vrbl 6 10.00 Fair CLR 96.8 33.8 11% 92 30.13 0.0
13 14:15 Calm 10.00 Fair CLR 98.6 33.8 10% 93 30.14 0.0
13 13:55 E 6 10.00 Fair CLR 95 32 11% 90 30.15 0.0
13 13:35 NW 3 10.00 Fair CLR 95 35.6 12% 90 30.16 0.0
13 13:15 Calm 10.00 Fair CLR 93.2 33.8 12% 89 30.17 0.0
13 12:55 S 5 10.00 Fair CLR 95 35.6 12% 90 30.17 0.0
13 12:35 Vrbl 7 10.00 Fair CLR 96.8 33.8 11% 92 30.17 0.0
13 12:15 S 8 10.00 Fair CLR 96.8 35.6 12% 92 30.18 0.0
13 11:55 SW 8 G 16 10.00 Fair CLR 96.8 37.4 13% 92 30.18 0.0
13 11:35 Calm 10.00 Fair CLR 93.2 35.6 13% 89 30.18 0.0
13 11:15 Vrbl 5 10.00 Fair CLR 89.6 37.4 16% 86 30.19 0.0
13 10:55 Calm 10.00 Fair CLR 86 39.2 19% 83 30.19 0.0
13 10:35 Vrbl 3 10.00 Fair CLR 82.4 39.2 21% 80 30.2 0.0
13 10:15 Calm 10.00 Fair CLR 80.6 39.2 23% 79 30.21 0.0
13 09:55 Vrbl 7 G 15 10.00 Fair CLR 80.6 39.2 23% 79 30.22 0.0
13 09:35 Vrbl 3 10.00 Fair CLR 80.6 39.2 23% 79 30.21 0.0
13 09:15 NE 6 10.00 Fair CLR 78.8 41 26% 78 30.21 0.0
13 08:55 Calm 10.00 Fair CLR 77 41 28% 78 30.21 0.0
13 08:35 S 8 G 20 10.00 Fair CLR 77 42.8 30% 78 30.2 0.0
13 08:15 S 8 G 15 10.00 Fair CLR 77 44.6 32% 78 30.19 0.0
13 07:55 Vrbl 6 10.00 Fair CLR 77 44.6 32% 78 30.18 0.0
13 07:35 Calm 10.00 Fair CLR 73.4 42.8 33% 30.17 0.0
13 07:15 Calm 10.00 Fair CLR 73.4 42.8 33% 30.17 0.0
13 06:55 SE 5 10.00 Fair CLR 71.6 42.8 36% 30.18 0.0
13 06:35 NW 10 10.00 Fair CLR 71.6 41 33% 30.18 0.0
13 06:15 W 3 10.00 Fair CLR 69.8 42.8 38% 30.19 0.0
13 05:55 Vrbl 5 10.00 Fair CLR 69.8 42.8 38% 30.18 0.0
13 05:35 Calm 10.00 Fair CLR 68 42.8 40% 30.17 0.0
13 05:15 Calm 10.00 Fair CLR 69.8 42.8 38% 30.16 0.0
13 04:55 Calm 10.00 Fair CLR 69.8 42.8 38% 30.15 0.0
13 04:35 Calm 10.00 Fair CLR 71.6 41 33% 30.15 0.0
13 04:15 NE 5 10.00 Fair CLR 69.8 42.8 38% 30.15 0.0
13 03:55 Calm 10.00 Fair CLR 73.4 41 31% 30.16 0.0
13 03:35 NW 3 10.00 Fair CLR 73.4 41 31% 30.17 0.0
13 03:15 Calm 10.00 A Few Clouds FEW110 73.4 42.8 33% 30.18 0.0
13 02:55 Calm 10.00 Partly Cloudy SCT110 73.4 41 31% 30.18 0.0
13 02:35 NW 5 10.00 A Few Clouds FEW110 73.4 41 31% 30.18 0.0
13 02:15 Calm 10.00 Fair CLR 69.8 44.6 40% 30.18 0.0
13 01:55 Calm 10.00 Fair CLR 71.6 44.6 38% 30.17 0.0
13 01:35 Calm 10.00 Fair CLR 73.4 42.8 33% 30.17 0.0
13 01:15 N 3 10.00 Fair CLR 73.4 42.8 33% 30.16 0.0
13 00:55 SW 3 9.00 Fair CLR 71.6 42.8 36% 30.16 0.0
13 00:35 Calm 10.00 Fair CLR 75.2 42.8 31% 77 30.17 0.0
13 00:15 Calm 10.00 Fair CLR 75.2 41 29% 77 30.17 0.0
12 23:55 Calm 10.00 A Few Clouds FEW120 78.8 41 26% 78 30.17 0.0
12 23:35 NW 5 10.00 Fair CLR 78.8 39.2 24% 78 30.17 0.0
12 23:15 Calm 10.00 Fair CLR 78.8 41 26% 78 30.16 0.0
12 22:55 Calm 10.00 Fair CLR 77 39.2 26% 77 30.16 0.0
12 22:35 N 3 10.00 Fair CLR 77 39.2 26% 77 30.16 0.0
12 22:15 Calm 10.00 Fair CLR 80.6 39.2 23% 79 30.16 0.0
12 21:50 SW 3 10.00 Fair CLR 80.6 39.2 23% 79 30.15 0.0
12 21:35 Calm 10.00 Fair CLR 82.4 39.2 21% 80 30.14 0.0
12 21:15 Vrbl 3 10.00 Fair CLR 82.4 39.2 21% 80 30.15 0.0
12 20:55 Calm 10.00 Fair CLR 82.4 41 23% 80 30.14 0.0
12 20:35 NE 6 10.00 Fair CLR 84.2 39.2 20% 81 30.14 0.0
12 20:15 Calm 10.00 Fair CLR 82.4 39.2 21% 80 30.15 0.0
12 19:55 Calm 10.00 Fair CLR 84.2 39.2 20% 81 30.14 0.0
12 19:35 NW 6 10.00 Fair CLR 86 37.4 18% 83 30.14 0.0
12 19:15 Vrbl 5 10.00 Fair CLR 86 37.4 18% 83 30.16 0.0
12 18:55 Calm 10.00 Fair CLR 86 37.4 18% 83 30.18 0.0
12 18:30 S 13 G 28 10.00 Fair CLR 87.8 37.4 17% 84 30.17 0.0
12 18:15 S 22 G 37 7.00 Fair and Breezy CLR 89.6 35.6 15% 86 30.16 0.0
12 17:55 S 12 G 21 10.00 Fair CLR 91.4 30.2 11% 87 30.16 0.0
12 17:35 S 21 G 30 10.00 A Few Clouds and Breezy FEW110 91.4 32 12% 87 30.14 0.0
12 17:15 S 13 G 18 10.00 A Few Clouds FEW030 FEW039 FEW045 91.4 32 12% 87 30.15 0.0
12 16:55 E 10 G 44 2.00 Light Rain Haze FEW030 SCT042 BKN100 89.6 33.8 14% 86 30.17 0.0
12 16:35 S 21 G 30 9.00 Partly Cloudy and Breezy FEW100 SCT120 93.2 32 11% 89 30.14 0.0
12 16:15 SE 9 10.00 Thunderstorm in Vicinity CLR 96.8 28.4 9% 92 30.11 0.0
12 15:55 SE 8 10.00 Fair CLR 98.6 28.4 8% 93 30.11 0.0
12 15:35 Vrbl 3 G 15 10.00 Fair CLR 100.4 26.6 7% 95 30.11 0.0
12 15:15 Calm 10.00 Fair CLR 100.4 26.6 7% 95 30.1 0.0
12 14:55 S 5 G 13 10.00 Fair CLR 102.2 26.6 7% 96 30.11 0.0
12 14:35 Vrbl 6 10.00 Fair CLR 98.6 24.8 7% 93 30.11 0.0
12 14:15 NW 10 10.00 Fair CLR 98.6 24.8 7% 93 30.11 0.0
12 13:55 W 10 10.00 Fair CLR 100.4 24.8 7% 95 30.12 0.0
12 13:35 Calm 10.00 Fair CLR 98.6 23 7% 93 30.13 0.0
12 13:15 Vrbl 3 10.00 Fair CLR 98.6 23 7% 93 30.14 0.0
12 12:55 Calm 10.00 Fair CLR 96.8 24.8 7% 92 30.15 0.0
12 12:35 Calm 10.00 Fair CLR 96.8 24.8 7% 92 30.15 0.0
12 12:15 Calm 10.00 Fair CLR 95 24.8 8% 90 30.16 0.0
12 11:55 N 5 10.00 Fair CLR 95 26.6 9% 90 30.17 0.0
12 11:35 Calm 10.00 Fair CLR 93.2 26.6 9% 89 30.18 0.0
12 11:15 S 3 10.00 Fair CLR 93.2 28.4 10% 89 30.18 0.0
12 10:55 Calm 10.00 Fair CLR 87.8 32 13% 84 30.19 0.0
12 10:35 Calm 10.00 Fair CLR 87.8 33.8 15% 84 30.2 0.0
12 10:15 Calm 10.00 Fair CLR 84.2 33.8 16% 81 30.2 0.0
12 09:55 Calm 10.00 Fair CLR 84.2 35.6 18% 81 30.2 0.0
12 09:35 Vrbl 3 10.00 Fair CLR 82.4 37.4 20% 80 30.21 0.0
12 09:15 S 3 10.00 Fair CLR 78.8 35.6 21% 78 30.21 0.0
12 08:55 Calm 10.00 Fair CLR 78.8 35.6 21% 78 30.21 0.0
12 08:35 Calm 10.00 Fair CLR 75.2 35.6 24% 76 30.21 0.0
12 08:15 Calm 10.00 Fair CLR 73.4 41 31% 30.21 0.0
12 07:55 Calm 10.00 Fair CLR 69.8 41 35% 30.21 0.0
12 07:35 Calm 10.00 Fair CLR 69.8 41 35% 30.21 0.0
12 07:15 Calm 10.00 Fair CLR 68 39.2 35% 30.21 0.0
12 06:55 NW 3 10.00 Fair CLR 62.6 41 45% 30.21 0.0
12 06:35 Calm 10.00 Fair CLR 60.8 42.8 52% 30.2 0.0
12 06:15 Calm 10.00 Fair CLR 64.4 37.4 37% 30.2 0.0
12 05:55 NW 6 10.00 Fair CLR 60.8 39.2 45% 30.2 0.0
12 05:35 Calm 10.00 Fair CLR 62.6 39.2 42% 30.2 0.0
12 05:15 Calm 10.00 Fair CLR 62.6 37.4 39% 30.19 0.0
12 04:55 Calm 10.00 Fair CLR 60.8 37.4 42% 30.18 0.0
12 04:35 Calm 10.00 Fair CLR 60.8 37.4 42% 30.18 0.0
12 04:15 Calm 10.00 Fair CLR 62.6 37.4 39% 30.18 0.0
12 03:55 Calm 10.00 Fair CLR 64.4 37.4 37% 30.17 0.0
12 03:35 NW 5 10.00 Fair CLR 64.4 35.6 34% 30.17 0.0
12 03:15 Calm 10.00 Fair CLR 64.4 35.6 34% 30.17 0.0
12 02:55 Calm 10.00 Fair CLR 66.2 35.6 32% 30.17 0.0
12 02:35 Calm 10.00 Fair CLR 66.2 35.6 32% 30.17 0.0
12 02:15 Calm 10.00 Fair CLR 68 35.6 30% 30.17 0.0
12 01:55 Calm 10.00 Fair CLR 66.2 35.6 32% 30.17 0.0
12 01:35 Calm 10.00 Fair CLR 69.8 33.8 27% 30.17 0.0
12 01:15 Calm 10.00 Fair CLR 69.8 33.8 27% 30.17 0.0
12 00:55 Calm 10.00 Fair CLR 69.8 33.8 27% 30.17 0.0
12 00:35 Calm 10.00 Fair CLR 71.6 32 23% 30.17 0.0
12 00:15 NW 3 10.00 Fair CLR 71.6 32 23% 30.17 0.0
11 23:55 Calm 10.00 Fair CLR 71.6 32 23% 30.17 0.0
11 23:35 N 5 10.00 Fair CLR 75.2 28.4 18% 76 30.17 0.0
11 23:15 Calm 10.00 Fair CLR 75.2 30.2 19% 76 30.17 0.0
11 22:55 N 3 10.00 Fair CLR 78.8 30.2 17% 78 30.17 0.0
11 22:35 Calm 10.00 Fair CLR 78.8 32 18% 78 30.17 0.0
11 22:15 Calm 10.00 Fair CLR 80.6 32 17% 79 30.17 0.0
11 21:55 Vrbl 3 10.00 Fair CLR 86 30.2 13% 83 30.16 0.0
11 21:35 Calm 10.00 Fair CLR 86 32 14% 83 30.16 0.0
11 21:15 Vrbl 3 10.00 Fair CLR 86 32 14% 83 30.16 0.0
11 20:55 Calm 10.00 Fair CLR 86 32 14% 83 30.15 0.0
11 20:35 Calm 10.00 Fair CLR 87.8 30.2 13% 84 30.15 0.0
11 20:15 W 5 10.00 Fair CLR 89.6 28.4 11% 86 30.14 0.0
11 19:55 Vrbl 5 10.00 Fair CLR 91.4 28.4 10% 87 30.14 0.0
11 19:35 W 7 G 14 10.00 Fair CLR 93.2 28.4 10% 89 30.13 0.0
11 19:15 W 9 G 17 10.00 Fair CLR 93.2 28.4 10% 89 30.13 0.0
11 18:55 W 14 10.00 Fair CLR 95 28.4 9% 90 30.12 0.0
11 18:35 W 13 G 21 10.00 Fair CLR 95 28.4 9% 90 30.12 0.0
11 18:15 W 13 G 21 10.00 Fair CLR 96.8 26.6 8% 92 30.11 0.0
11 17:55 W 16 G 24 10.00 Fair CLR 96.8 26.6 8% 92 30.11 0.0
11 17:35 W 15 G 22 10.00 Fair CLR 96.8 26.6 8% 92 30.11 0.0
11 17:15 W 20 G 28 7.00 Light Rain CLR 96.8 24.8 7% 92 30.11 0.0
11 16:55 W 17 G 28 10.00 Fair CLR 98.6 26.6 8% 93 30.11 0.0
11 16:35 W 20 G 30 8.00 Fair CLR 98.6 26.6 8% 93 30.11 0.0
11 16:15 W 20 G 30 8.00 Fair CLR 98.6 26.6 8% 93 30.11 0.0
11 15:55 W 15 G 25 8.00 Fair CLR 98.6 28.4 8% 93 30.12 0.0
11 15:35 W 17 G 25 8.00 Fair CLR 100.4 26.6 7% 95 30.12 0.0
11 15:15 W 17 G 24 10.00 Fair CLR 100.4 26.6 7% 95 30.13 0.0
11 14:55 W 16 G 23 10.00 Fair CLR 100.4 24.8 7% 95 30.14 0.0
11 14:30 W 14 G 25 10.00 Fair CLR 100.4 26.6 7% 95 30.14 0.0
11 14:15 W 15 10.00 Fair CLR 100.4 26.6 7% 95 30.14 0.0
11 13:55 W 10 G 20 10.00 Fair CLR 100.4 24.8 7% 95 30.15 0.0
11 13:35 SW 10 10.00 Fair CLR 98.6 24.8 7% 93 30.15 0.0
11 13:15 W 10 G 22 10.00 Fair CLR 100.4 23 6% 95 30.16 0.0
11 12:55 W 14 10.00 Fair CLR 98.6 23 7% 93 30.16 0.0
11 12:35 Vrbl 3 10.00 Fair CLR 96.8 23 7% 92 30.17 0.0
11 12:15 Vrbl 3 10.00 Fair CLR 96.8 23 7% 92 30.17 0.0
11 11:55 W 5 10.00 Fair CLR 95 26.6 9% 90 30.18 0.0
11 11:35 Calm 10.00 Fair CLR 93.2 28.4 10% 89 30.18 0.0
11 11:15 Vrbl 5 10.00 Fair CLR 91.4 32 12% 87 30.19 0.0
11 10:55 Calm 10.00 Fair CLR 89.6 32 13% 86 30.19 0.0
11 10:30 Calm 10.00 Fair CLR 86 33.8 15% 83 30.2 0.0
11 10:15 Calm 10.00 Fair CLR 84.2 35.6 18% 81 30.21 0.0
11 09:55 Calm 10.00 Fair CLR 82.4 35.6 19% 80 30.21 0.0
11 09:35 Calm 10.00 Fair CLR 80.6 35.6 20% 79 30.21 0.0
11 09:15 Calm 10.00 Fair CLR 78.8 33.8 20% 78 30.22 0.0
11 08:55 Calm 10.00 Fair CLR 75.2 35.6 24% 76 30.22 0.0
11 08:35 Calm 10.00 Fair CLR 73.4 35.6 25% 30.23 0.0
11 08:15 W 3 10.00 Fair CLR 71.6 35.6 27% 30.23 0.0
11 07:55 Calm 10.00 Fair CLR 71.6 35.6 27% 30.22 0.0
11 07:35 W 3 10.00 Fair CLR 68 41 38% 30.22 0.0
11 07:15 Calm 10.00 Fair CLR 66.2 41 40% 30.22 0.0
11 06:55 Calm 10.00 Fair CLR 62.6 41 45% 30.21 0.0
11 06:35 Calm 10.00 Fair CLR 60.8 39.2 45% 30.21 0.0
11 06:15 Calm 10.00 Fair CLR 60.8 39.2 45% 30.21 0.0
11 05:55 Calm 10.00 Fair CLR 60.8 39.2 45% 30.2 0.0
11 05:30 Calm 10.00 Fair CLR 62.6 37.4 39% 30.2 0.0
11 05:15 Calm 10.00 Fair CLR 62.6 37.4 39% 30.2 0.0
11 04:55 Calm 10.00 Fair CLR 64.4 35.6 34% 30.19 0.0
11 04:35 NW 5 10.00 Fair CLR 64.4 37.4 37% 30.19 0.0
11 04:15 Calm 10.00 Fair CLR 66.2 37.4 35% 30.19 0.0
11 03:55 Calm 10.00 Fair CLR 66.2 37.4 35% 30.18 0.0
11 03:35 Calm 10.00 Fair CLR 66.2 37.4 35% 30.18 0.0
11 03:15 Calm 10.00 Fair CLR 66.2 37.4 35% 30.17 0.0
11 02:55 E 5 10.00 Fair CLR 68 37.4 33% 30.17 0.0
11 02:35 Calm 10.00 Fair CLR 71.6 37.4 29% 30.17 0.0
11 02:15 Calm 10.00 Fair CLR 71.6 37.4 29% 30.17 0.0
11 01:55 Calm 10.00 Fair CLR 71.6 37.4 29% 30.17 0.0
11 01:35 Calm 10.00 Fair CLR 71.6 37.4 29% 30.17 0.0
11 01:15 Calm 10.00 Fair CLR 69.8 33.8 27% 30.17 0.0
11 00:55 Calm 10.00 Fair CLR 71.6 33.8 25% 30.17 0.0
11 00:35 Calm 10.00 Fair CLR 71.6 33.8 25% 30.17 0.0
11 00:15 Calm 10.00 Fair CLR 71.6 32 23% 30.17 0.0
10 23:55 Calm 7.00 Fair CLR 73.4 35.6 25% 30.16 0.0
10 23:35 Calm 10.00 Fair CLR 75.2 37.4 25% 77 30.16 0.0
10 23:15 Calm 10.00 Fair CLR 77 35.6 22% 77 30.15 0.0
10 22:55 E 3 10.00 Fair CLR 78.8 35.6 21% 78 30.15 0.0
10 22:35 E 3 10.00 Fair CLR 78.8 33.8 20% 78 30.15 0.0
10 22:10 N 6 10.00 Fair CLR 80.6 33.8 18% 79 30.15 0.0
10 21:55 Calm 10.00 Fair CLR 84.2 32 15% 81 30.15 0.0
10 21:35 N 6 10.00 Fair CLR 84.2 33.8 16% 81 30.14 0.0
10 21:15 N 6 10.00 Fair CLR 86 33.8 15% 83 30.14 0.0
10 20:55 W 8 10.00 Fair CLR 87.8 33.8 15% 84 30.13 0.0
10 20:35 W 7 10.00 Fair CLR 87.8 33.8 15% 84 30.12 0.0
10 20:15 Vrbl 5 10.00 Fair CLR 89.6 33.8 14% 86 30.12 0.0
10 19:55 Calm 10.00 Fair CLR 91.4 33.8 13% 87 30.11 0.0
10 19:35 Vrbl 3 10.00 Fair CLR 93.2 35.6 13% 89 30.11 0.0
10 19:15 NW 7 10.00 Fair CLR 93.2 33.8 12% 89 30.1 0.0
10 18:55 NW 9 10.00 Fair CLR 95 33.8 11% 90 30.1 0.0
10 18:35 W 12 10.00 Fair CLR 96.8 33.8 11% 92 30.1 0.0
10 18:15 W 9 G 15 10.00 Fair CLR 96.8 32 10% 92 30.1 0.0
Date Time (pdt) Wind (mph) Vis. (mi.) Weather Sky Cond. Air Dwpt Max. Min. Relative Humidity Wind Chill (°F) Heat Index (°F) altimeter (in) sea level (mb) 1 hr 3 hr 6 hr
6 hour
Temperature (ºF) Pressure Precipitation (in)